SCP
0 0 0 0 0 0 0 0 0 0 0 0 0 0 0 0 0 0 0 0 0 0 0 0 0 0 0 0 0 0 0 0 0 0 0 0 0 0 0 0 0 0 0 0 0
0 0 0 0 0 0 0 0 0 0 0 0 0 0 0 0 0 0 0 0 0 0 0 0 0 0 0 0 0 0 0 0 0 0 0 0 0 0 0 0 0 0 0 0 0
0 0 0 0 0 0 0 0 0 0 0 0 0 0 0 0 0 0 0 0 0 0 0 0 0 0 0 0 0 0 0 0 0 0 0 0 0 0 0 0 0 0 0 0 0
0 0 0 0 0 0 0 0 0 0 0 0 0 0 0 0 0 0 0 0 0 0 0 0 0 0 0 0 0 0 0 0 0 0 0 0 0 0 0 0 0 0 0 0 0
0 0 0 0 0 0 0 0 0 0 0 0 0 0 0 0 0 0 0 0 0 0 0 0 0 0 0 0 0 0 0 0 0 0 0 0 0 0 0 0 0 0 0 0 0
0 0 0 0 0 0 0 0 0 0 0 0 0 0 0 0 0 0 0 0 0 0 0 0 0 0 0 0 0 0 0 0 0 0 0 0 0 0 -0 0 0 0 0 0 0
0 0 0 0 0 0 0 0 0 0 0 0 0 0 0 0 0 0 0 0 0 0 0 0 0 0 0 0 0 0 0 0 0 0 0 0 0 0 0 0 0 0 0 0 0
0 0 0 0 0 0 0 0 0 0 0 0 0 0 0 0 0 0 0 0 0 0 0 0 0 0 0 0 0 0 0 0 0 0 0 0 0 0 0 0 0 0 0 0 0
0 0 0 0 0 0 0 0 0 0 0 0 0 0 0 0 0 0 0 0 0 0 0 0 0 0 0 0 0 0 0 0 0 0 0 0 0 0 0 0 0 0 0 0 0
0 0 0 0 0 0 0 0 0 0 0 0 0 0 0 0 0 0 0 0 0 0 0 0 0 0 0 0 0 0 0 0 0 0 0 0 0 0 0 0 0 0 0 0 0
0 0 0 0 0 0 0 0 0 0 0 0 0 0 0 0 0 0 0 0 0 0 0 0 0 0 0 0 0 0 0 0 0 0 0 0 0 0 0 0 0 0 0 0 0
-0 0 0 0 0 0 0 0 0 0 0 0 0 0 0 0 0 0 0 0 0 0 0 0 0 0 0 0 0 0 0 0 0 0 0 0 0 0 0 0 0 0 0 0 0
0 -0 0 0 0 0 0 0 0 0 0 0 0 0 0 0 0 0 0 0 0 0 0 0 0 0 0 0 0 0 0 0 0 0 0 0 0 0 0 0 0 0 0 0 0
0 0 0 0 0 0 0 0 0 0 0 0 0 0 0 0 0 0 0 0 0 0 0 0 0 0 0 0 0 0 0 0 0 0 0 0 0 0 0 0 0 0 0 0 0
0 0 0 0 0 0 0 0 0 0 0 0 0 0 0 0 0 0 0 0 0 0 0 0 0 0 0 0 0 0 0 0 0 0 0 0 0 0 0 0 0 0 0 0 0
0 0 0 0 0 0 0 0 0 0 0 0 0 0 0 0 0 0 0 0 0 0 0 0 0 0 0 0 0 0 0 0 0 0 0 0 0 0 0 0 0 0 0 0 0
0 0 0 0 0 0 0 0 0 0 0 0 0 0 0 0 0 0 0 0 0 0 0 0 0 0 0 0 0 0 0 0 0 0 0 0 0 0 0 0 0 0 0 0 0
-0 0 0 0 0 -0 0 0 0 0 0 0 0 0 0 0 0 0 0 0 0 0 0 0 0 0 0 0 0 0 0 0 0 0 0 0 0 0 0 0 0 0 0 0 0
0 0 0 0 0 -0 0 0 0 0 0 0 0 0 0 0 0 0 0 0 0 0 0 0 0 0 0 0 0 0 0 0 0 0 0 0 0 0 0 0 0 0 0 0 0
0 0 0 0 0 0 0 0 0 0 0 0 0 0 0 0 0 0 0 0 0 0 0 0 0 0 0 0 0 0 0 0 0 0 0 0 0 0 0 0 0 0 0 0 0
0 0 0 0 0 0 0 0 0 0 0 0 0 0 0 0 0 0 0 0 0 0 0 0 0 0 0 0 0 0 0 0 0 0 0 0 0 0 0 0 0 0 0 0 0
0 0 0 0 0 0 0 0 0 0 0 0 0 0 0 0 0 0 0 0 0 0 0 0 0 0 0 0 0 0 0 0 0 0 0 0 0 0 0 0 0 0 0 0 0
0 0 0 0 0 0 0 0 0 0 0 0 0 0 0 0 0 0 0 0 0 0 0 0 0 0 0 0 0 0 0 0 0 0 0 0 0 0 0 0 0 0 0 0 0
0 0 0 0 0 0 0 0 0 0 0 0 -0 0 0 0 0 0 0 0 0 0 0 0 0 0 0 0 0 0 0 0 0 0 0 0 0 0 0 0 0 0 0 0 0
0 0 0 0 0 0 0 0 0 0 0 0 -0 -0 0 0 0 0 0 0 0 0 0 0 0 0 0 0 0 0 0 0 0 0 0 0 0 0 0 0 0 0 0 0 0
0 0 0 0 0 0 0 0 0 0 0 0 0 0 -0 0 0 0 0 0 0 0 0 0 0 0 0 0 0 0 0 0 0 0 0 0 0 0 0 0 0 0 0 -0 -0
0 0 0 0 0 0 0 0 0 0 0 0 0 -0 0 0 0 0 0 0 0 0 0 0 0 0 0 0 0 0 0 0 0 0 0 0 0 0 0 0 0 0 0 -0 -0
Wind_Speed_500mb
54 58 52 41 37 38 37 34 28 26 24 18 16 15 17 20 24 29 38 24 33 21 33 31 30 35 38 28 15 10 6 7 11 15 8 9 9 9 7 8 18 18 16 10 11
52 59 62 55 45 45 42 35 28 30 28 24 19 18 20 24 29 43 22 25 29 33 30 36 38 37 19 22 18 10 8 19 9 7 6 6 7 5 4 6 13 24 30 24 24
51 47 48 60 58 47 42 45 45 40 30 27 25 21 23 25 29 22 27 37 40 36 33 26 32 30 12 15 16 16 12 10 9 10 6 3 4 7 7 10 28 27 38 33 36
44 53 51 48 56 58 54 49 42 40 40 30 30 27 24 18 11 5 14 40 39 40 37 38 34 19 11 11 18 6 17 12 9 14 8 5 4 8 28 28 18 15 25 31 43
52 46 55 55 53 63 55 60 56 52 45 45 32 27 29 16 30 16 1 34 43 42 42 43 47 21 13 13 12 8 7 18 22 16 13 11 16 20 31 44 41 42 33 34 39
53 51 48 55 60 54 63 61 64 59 59 47 44 30 29 13 21 20 19 23 41 43 44 47 33 31 16 10 13 12 18 4 12 14 12 9 8 5 7 14 24 50 48 40 43
67 63 49 54 46 49 51 57 64 61 56 53 35 34 43 51 20 14 18 26 33 42 45 51 25 34 13 6 12 7 4 6 12 13 9 8 15 23 48 46 45 38 42 51 55
63 72 65 48 49 40 50 51 48 55 51 54 41 43 40 45 50 51 28 29 32 34 40 45 39 20 9 9 8 8 5 4 5 15 6 11 20 5 7 12 29 35 37 33 41
63 66 74 61 52 49 37 43 50 52 47 43 47 38 27 26 52 53 44 35 27 32 36 26 43 13 14 12 5 8 7 13 13 18 7 11 14 9 5 7 20 23 27 35 35
68 67 63 65 55 52 49 37 29 30 31 47 43 21 44 39 46 60 49 38 31 34 26 21 17 10 5 10 14 14 10 9 10 11 6 7 23 24 37 32 43 45 47 48 50
66 71 68 67 62 54 48 31 26 18 41 34 31 30 16 45 13 32 58 46 35 36 14 15 11 33 17 21 11 12 8 11 7 8 10 15 16 32 35 31 46 60 64 64 65
68 66 71 69 56 50 50 44 21 4 16 73 45 71 12 27 17 39 49 37 22 14 11 4 31 14 16 9 11 10 11 8 7 5 9 8 20 24 19 24 52 58 70 74 75
70 75 72 65 53 51 59 63 37 9 11 18 86 50 64 40 14 38 63 36 10 16 25 16 8 21 23 11 18 11 15 10 10 2 5 10 16 16 16 19 52 65 73 78 80
65 65 69 57 45 52 67 63 57 53 8 12 24 46 44 17 16 46 63 40 11 32 20 17 8 27 13 24 21 25 18 15 8 5 9 3 14 10 12 14 12 43 49 55 45
60 71 68 65 44 42 52 49 54 31 11 14 20 18 53 39 25 40 58 46 17 16 15 19 22 20 23 19 30 15 16 22 11 7 3 7 6 14 5 14 22 20 52 51 40
66 70 68 61 53 29 29 38 42 14 16 11 19 22 22 42 10 19 37 31 15 11 6 14 9 15 23 11 31 15 14 12 9 7 11 15 12 9 11 16 12 3 14 19 21
70 70 67 63 57 44 36 37 11 14 7 9 12 28 35 26 33 13 19 34 19 11 16 6 7 6 10 12 8 6 17 3 2 0 14 8 12 22 15 18 11 14 26 16 11
57 77 65 61 49 48 44 16 17 8 15 2 11 29 32 22 25 13 31 33 33 12 12 20 14 17 10 12 20 21 26 12 15 9 7 4 15 12 10 11 11 9 8 7 6
79 71 64 57 46 42 28 17 24 12 5 11 5 33 20 20 21 15 25 42 42 29 21 20 19 3 9 9 27 12 22 13 10 6 4 10 13 17 4 6 9 8 2 4 7
83 64 55 50 50 43 8 31 11 10 4 4 17 19 23 40 16 34 25 26 24 39 4 10 8 7 3 8 3 18 21 10 1 10 8 8 9 9 5 5 5 6 7 5 6
74 28 38 44 49 20 17 11 7 3 5 7 11 9 17 24 17 34 27 9 45 37 13 13 8 1 11 15 20 6 11 4 9 9 11 3 11 10 15 13 13 4 7 3 1
43 8 44 53 15 4 12 7 2 5 3 6 5 6 17 21 20 29 29 37 36 30 37 12 10 8 13 2 4 2 15 30 17 14 3 4 11 5 15 9 5 10 10 9 10
24 15 34 55 13 4 2 3 4 10 6 1 7 9 7 19 13 13 14 8 20 32 35 20 8 8 5 6 6 9 6 8 9 6 13 10 11 4 2 3 4 5 9 7 6
24 7 6 11 4 11 9 9 7 7 1 5 8 7 6 10 4 22 12 9 15 22 25 40 6 26 28 24 14 13 15 12 24 15 17 17 10 9 12 12 9 7 1 5 5
9 7 12 9 5 5 7 10 10 8 8 7 6 12 3 6 7 9 9 8 5 6 18 16 32 6 4 9 10 16 21 21 14 36 20 27 16 13 20 18 16 15 5 6 10
16 15 11 6 23 10 2 7 9 6 6 6 6 7 13 8 6 14 14 8 10 4 11 6 7 9 4 11 9 5 17 26 32 32 18 7 9 6 16 24 15 18 10 13 11
15 27 20 7 7 9 9 12 13 11 1 3 4 5 8 8 10 7 15 16 6 13 10 12 10 15 26 17 9 13 21 17 15 10 23 19 14 11 11 16 20 13 11 11 6
Wind_Direction_500mb
258 261 265 273 268 260 266 267 277 286 294 299 309 307 290 276 265 249 239 233 222 208 195 197 184 175 178 183 183 168 86 212 218 166 223 184 184 183 189 190 199 208 234 251 209
263 258 255 254 257 262 256 260 267 274 279 290 298 305 303 294 277 260 240 219 209 200 194 192 181 176 181 183 177 145 160 213 213 197 202 188 188 207 192 204 233 238 238 240 222
261 261 265 252 247 252 245 260 268 265 267 275 288 294 307 309 298 260 234 214 202 200 199 188 188 176 187 181 192 177 202 213 229 200 183 200 239 209 190 247 232 230 243 231 219
280 259 260 265 252 246 247 244 252 254 258 265 277 290 294 301 245 255 222 199 193 192 189 184 182 184 175 197 197 173 231 189 191 199 176 196 257 255 219 242 266 260 258 241 227
273 270 256 257 259 250 249 247 246 249 248 262 270 278 293 263 252 258 224 189 188 190 195 187 181 178 183 195 170 215 232 222 236 218 225 243 241 252 258 263 260 260 251 236 235
270 269 266 263 258 257 248 246 246 249 252 250 261 267 266 247 256 241 233 207 201 201 198 197 202 188 191 199 183 221 221 213 215 217 228 205 243 232 272 276 265 245 244 241 237
268 273 263 265 270 253 253 245 249 247 254 249 249 255 250 239 242 211 226 222 216 210 205 203 209 196 192 164 209 163 137 288 219 209 235 191 283 236 259 262 262 256 254 248 246
264 264 265 255 263 259 248 249 248 252 253 240 241 245 252 257 253 247 246 216 212 209 208 210 200 197 202 144 59 137 69 167 268 149 206 162 263 264 183 251 264 254 250 251 249
257 259 259 255 252 257 257 254 250 250 253 235 241 242 257 248 230 227 227 220 210 203 203 203 202 198 159 120 57 347 193 208 306 197 134 173 266 257 216 232 277 274 263 254 254
242 252 254 251 248 250 253 257 251 254 260 225 230 232 239 231 231 222 216 214 199 191 182 179 178 163 117 135 191 196 204 213 212 200 164 192 259 267 264 287 285 281 272 265 263
266 244 249 241 247 243 248 248 260 247 224 198 201 210 255 228 248 220 207 189 191 174 172 196 182 204 179 190 179 141 183 182 223 180 158 222 255 269 281 285 278 278 274 273 270
269 257 237 234 233 228 233 221 208 267 255 220 221 218 227 169 199 207 193 173 166 175 147 139 226 189 183 184 157 155 166 215 303 156 165 266 260 263 267 257 262 265 273 275 276
261 266 227 225 226 219 229 231 218 227 257 233 221 222 217 234 235 204 185 189 155 159 193 194 192 169 181 166 180 191 167 177 201 33 252 316 271 241 260 238 259 261 262 266 266
253 243 213 213 206 227 236 233 225 246 264 244 193 230 221 212 245 212 194 176 178 199 169 231 179 175 168 209 181 217 172 191 187 115 238 183 282 285 258 261 246 265 262 257 266
237 224 202 208 205 214 233 215 215 228 214 219 179 198 198 184 148 197 194 196 173 170 154 216 171 162 197 190 182 215 159 189 161 190 351 208 302 269 297 281 260 258 267 275 276
228 205 199 196 214 223 213 196 196 224 221 185 145 168 145 199 190 141 176 193 189 171 254 207 188 161 186 158 179 139 96 67 63 104 258 174 185 228 197 216 257 313 331 300 282
219 200 191 198 204 204 176 154 192 231 310 202 165 176 178 180 200 166 168 187 178 152 186 142 198 169 141 108 116 148 141 87 1 309 240 235 192 255 280 261 246 285 314 310 288
233 187 193 198 209 209 205 199 211 203 229 309 166 174 189 152 200 178 175 190 209 170 162 182 211 163 184 179 166 179 180 167 185 192 211 143 226 244 228 289 281 264 288 295 286
182 174 185 193 199 197 187 213 208 195 222 190 137 176 184 186 169 154 192 198 196 191 174 172 221 113 171 158 158 187 208 181 95 44 117 208 276 294 224 290 334 311 283 242 232
162 161 186 190 188 196 198 220 206 198 158 254 190 191 181 185 160 186 171 202 205 203 206 202 184 207 154 117 59 188 161 156 89 172 239 253 263 235 252 248 345 340 284 247 214
155 140 185 185 185 197 210 231 228 246 139 199 232 169 207 192 188 195 193 208 197 193 162 156 134 332 133 209 171 145 175 154 149 171 198 208 257 226 186 173 134 79 81 103 339
138 111 165 175 183 200 204 180 208 175 151 264 243 243 188 187 197 199 206 204 197 168 195 182 130 160 196 4 17 169 187 196 206 202 213 168 257 315 152 176 123 108 115 109 92
111 108 165 180 199 175 200 179 248 191 169 252 258 222 246 176 199 198 192 200 162 177 185 178 187 125 37 351 355 205 180 136 106 93 197 178 245 20 281 236 214 148 112 74 57
130 118 119 149 134 146 154 175 249 236 131 167 257 230 252 213 282 189 196 188 188 197 196 171 150 207 207 217 133 182 191 185 193 201 205 213 179 200 238 225 233 217 234 328 303
117 175 154 172 209 180 109 159 166 211 230 183 286 219 233 264 193 175 156 164 180 187 191 170 212 124 133 117 138 186 189 186 183 220 203 229 197 220 209 202 218 199 247 283 289
129 135 121 132 140 120 326 223 153 176 179 200 204 258 175 222 262 193 148 172 177 145 165 131 227 117 136 101 80 170 204 198 211 230 237 110 243 229 197 195 193 198 237 254 278
132 139 122 118 113 98 202 183 191 151 115 307 125 105 156 113 78 16 83 84 131 157 160 147 138 167 214 156 119 242 210 182 201 196 212 212 199 164 198 204 200 237 229 242 235
Wind_Speed_850mb
54 58 52 41 37 38 37 34 28 26 24 18 16 15 17 20 24 29 38 24 33 21 33 31 30 35 38 28 15 10 6 7 11 15 8 9 9 9 7 8 18 18 16 10 11
52 59 62 55 45 45 42 35 28 30 28 24 19 18 20 24 29 43 22 25 29 33 30 36 38 37 19 22 18 10 8 19 9 7 6 6 7 5 4 6 13 24 30 24 24
51 47 48 60 58 47 42 45 45 40 30 27 25 21 23 25 29 22 27 37 40 36 33 26 32 30 12 15 16 16 12 10 9 10 6 3 4 7 7 10 28 27 38 33 36
44 53 51 48 56 58 54 49 42 40 40 30 30 27 24 18 11 5 14 40 39 40 37 38 34 19 11 11 18 6 17 12 9 14 8 5 4 8 28 28 18 15 25 31 43
52 46 55 55 53 63 55 60 56 52 45 45 32 27 29 16 30 16 1 34 43 42 42 43 47 21 13 13 12 8 7 18 22 16 13 11 16 20 31 44 41 42 33 34 39
53 51 48 55 60 54 63 61 64 59 59 47 44 30 29 13 21 20 19 23 41 43 44 47 33 31 16 10 13 12 18 4 12 14 12 9 8 5 7 14 24 50 48 40 43
67 63 49 54 46 49 51 57 64 61 56 53 35 34 43 51 20 14 18 26 33 42 45 51 25 34 13 6 12 7 4 6 12 13 9 8 15 23 48 46 45 38 42 51 55
63 72 65 48 49 40 50 51 48 55 51 54 41 43 40 45 50 51 28 29 32 34 40 45 39 20 9 9 8 8 5 4 5 15 6 11 20 5 7 12 29 35 37 33 41
63 66 74 61 52 49 37 43 50 52 47 43 47 38 27 26 52 53 44 35 27 32 36 26 43 13 14 12 5 8 7 13 13 18 7 11 14 9 5 7 20 23 27 35 35
68 67 63 65 55 52 49 37 29 30 31 47 43 21 44 39 46 60 49 38 31 34 26 21 17 10 5 10 14 14 10 9 10 11 6 7 23 24 37 32 43 45 47 48 50
66 71 68 67 62 54 48 31 26 18 41 34 31 30 16 45 13 32 58 46 35 36 14 15 11 33 17 21 11 12 8 11 7 8 10 15 16 32 35 31 46 60 64 64 65
68 66 71 69 56 50 50 44 21 4 16 73 45 71 12 27 17 39 49 37 22 14 11 4 31 14 16 9 11 10 11 8 7 5 9 8 20 24 19 24 52 58 70 74 75
70 75 72 65 53 51 59 63 37 9 11 18 86 50 64 40 14 38 63 36 10 16 25 16 8 21 23 11 18 11 15 10 10 2 5 10 16 16 16 19 52 65 73 78 80
65 65 69 57 45 52 67 63 57 53 8 12 24 46 44 17 16 46 63 40 11 32 20 17 8 27 13 24 21 25 18 15 8 5 9 3 14 10 12 14 12 43 49 55 45
60 71 68 65 44 42 52 49 54 31 11 14 20 18 53 39 25 40 58 46 17 16 15 19 22 20 23 19 30 15 16 22 11 7 3 7 6 14 5 14 22 20 52 51 40
66 70 68 61 53 29 29 38 42 14 16 11 19 22 22 42 10 19 37 31 15 11 6 14 9 15 23 11 31 15 14 12 9 7 11 15 12 9 11 16 12 3 14 19 21
70 70 67 63 57 44 36 37 11 14 7 9 12 28 35 26 33 13 19 34 19 11 16 6 7 6 10 12 8 6 17 3 2 0 14 8 12 22 15 18 11 14 26 16 11
57 77 65 61 49 48 44 16 17 8 15 2 11 29 32 22 25 13 31 33 33 12 12 20 14 17 10 12 20 21 26 12 15 9 7 4 15 12 10 11 11 9 8 7 6
79 71 64 57 46 42 28 17 24 12 5 11 5 33 20 20 21 15 25 42 42 29 21 20 19 3 9 9 27 12 22 13 10 6 4 10 13 17 4 6 9 8 2 4 7
83 64 55 50 50 43 8 31 11 10 4 4 17 19 23 40 16 34 25 26 24 39 4 10 8 7 3 8 3 18 21 10 1 10 8 8 9 9 5 5 5 6 7 5 6
74 28 38 44 49 20 17 11 7 3 5 7 11 9 17 24 17 34 27 9 45 37 13 13 8 1 11 15 20 6 11 4 9 9 11 3 11 10 15 13 13 4 7 3 1
43 8 44 53 15 4 12 7 2 5 3 6 5 6 17 21 20 29 29 37 36 30 37 12 10 8 13 2 4 2 15 30 17 14 3 4 11 5 15 9 5 10 10 9 10
24 15 34 55 13 4 2 3 4 10 6 1 7 9 7 19 13 13 14 8 20 32 35 20 8 8 5 6 6 9 6 8 9 6 13 10 11 4 2 3 4 5 9 7 6
24 7 6 11 4 11 9 9 7 7 1 5 8 7 6 10 4 22 12 9 15 22 25 40 6 26 28 24 14 13 15 12 24 15 17 17 10 9 12 12 9 7 1 5 5
9 7 12 9 5 5 7 10 10 8 8 7 6 12 3 6 7 9 9 8 5 6 18 16 32 6 4 9 10 16 21 21 14 36 20 27 16 13 20 18 16 15 5 6 10
16 15 11 6 23 10 2 7 9 6 6 6 6 7 13 8 6 14 14 8 10 4 11 6 7 9 4 11 9 5 17 26 32 32 18 7 9 6 16 24 15 18 10 13 11
15 27 20 7 7 9 9 12 13 11 1 3 4 5 8 8 10 7 15 16 6 13 10 12 10 15 26 17 9 13 21 17 15 10 23 19 14 11 11 16 20 13 11 11 6
Wind_Direction_850mb
258 261 265 273 268 260 266 267 277 286 294 299 309 307 290 276 265 249 239 233 222 208 195 197 184 175 178 183 183 168 86 212 218 166 223 184 184 183 189 190 199 208 234 251 209
263 258 255 254 257 262 256 260 267 274 279 290 298 305 303 294 277 260 240 219 209 200 194 192 181 176 181 183 177 145 160 213 213 197 202 188 188 207 192 204 233 238 238 240 222
261 261 265 252 247 252 245 260 268 265 267 275 288 294 307 309 298 260 234 214 202 200 199 188 188 176 187 181 192 177 202 213 229 200 183 200 239 209 190 247 232 230 243 231 219
280 259 260 265 252 246 247 244 252 254 258 265 277 290 294 301 245 255 222 199 193 192 189 184 182 184 175 197 197 173 231 189 191 199 176 196 257 255 219 242 266 260 258 241 227
273 270 256 257 259 250 249 247 246 249 248 262 270 278 293 263 252 258 224 189 188 190 195 187 181 178 183 195 170 215 232 222 236 218 225 243 241 252 258 263 260 260 251 236 235
270 269 266 263 258 257 248 246 246 249 252 250 261 267 266 247 256 241 233 207 201 201 198 197 202 188 191 199 183 221 221 213 215 217 228 205 243 232 272 276 265 245 244 241 237
268 273 263 265 270 253 253 245 249 247 254 249 249 255 250 239 242 211 226 222 216 210 205 203 209 196 192 164 209 163 137 288 219 209 235 191 283 236 259 262 262 256 254 248 246
264 264 265 255 263 259 248 249 248 252 253 240 241 245 252 257 253 247 246 216 212 209 208 210 200 197 202 144 59 137 69 167 268 149 206 162 263 264 183 251 264 254 250 251 249
257 259 259 255 252 257 257 254 250 250 253 235 241 242 257 248 230 227 227 220 210 203 203 203 202 198 159 120 57 347 193 208 306 197 134 173 266 257 216 232 277 274 263 254 254
242 252 254 251 248 250 253 257 251 254 260 225 230 232 239 231 231 222 216 214 199 191 182 179 178 163 117 135 191 196 204 213 212 200 164 192 259 267 264 287 285 281 272 265 263
266 244 249 241 247 243 248 248 260 247 224 198 201 210 255 228 248 220 207 189 191 174 172 196 182 204 179 190 179 141 183 182 223 180 158 222 255 269 281 285 278 278 274 273 270
269 257 237 234 233 228 233 221 208 267 255 220 221 218 227 169 199 207 193 173 166 175 147 139 226 189 183 184 157 155 166 215 303 156 165 266 260 263 267 257 262 265 273 275 276
261 266 227 225 226 219 229 231 218 227 257 233 221 222 217 234 235 204 185 189 155 159 193 194 192 169 181 166 180 191 167 177 201 33 252 316 271 241 260 238 259 261 262 266 266
253 243 213 213 206 227 236 233 225 246 264 244 193 230 221 212 245 212 194 176 178 199 169 231 179 175 168 209 181 217 172 191 187 115 238 183 282 285 258 261 246 265 262 257 266
237 224 202 208 205 214 233 215 215 228 214 219 179 198 198 184 148 197 194 196 173 170 154 216 171 162 197 190 182 215 159 189 161 190 351 208 302 269 297 281 260 258 267 275 276
228 205 199 196 214 223 213 196 196 224 221 185 145 168 145 199 190 141 176 193 189 171 254 207 188 161 186 158 179 139 96 67 63 104 258 174 185 228 197 216 257 313 331 300 282
219 200 191 198 204 204 176 154 192 231 310 202 165 176 178 180 200 166 168 187 178 152 186 142 198 169 141 108 116 148 141 87 1 309 240 235 192 255 280 261 246 285 314 310 288
233 187 193 198 209 209 205 199 211 203 229 309 166 174 189 152 200 178 175 190 209 170 162 182 211 163 184 179 166 179 180 167 185 192 211 143 226 244 228 289 281 264 288 295 286
182 174 185 193 199 197 187 213 208 195 222 190 137 176 184 186 169 154 192 198 196 191 174 172 221 113 171 158 158 187 208 181 95 44 117 208 276 294 224 290 334 311 283 242 232
162 161 186 190 188 196 198 220 206 198 158 254 190 191 181 185 160 186 171 202 205 203 206 202 184 207 154 117 59 188 161 156 89 172 239 253 263 235 252 248 345 340 284 247 214
155 140 185 185 185 197 210 231 228 246 139 199 232 169 207 192 188 195 193 208 197 193 162 156 134 332 133 209 171 145 175 154 149 171 198 208 257 226 186 173 134 79 81 103 339
138 111 165 175 183 200 204 180 208 175 151 264 243 243 188 187 197 199 206 204 197 168 195 182 130 160 196 4 17 169 187 196 206 202 213 168 257 315 152 176 123 108 115 109 92
111 108 165 180 199 175 200 179 248 191 169 252 258 222 246 176 199 198 192 200 162 177 185 178 187 125 37 351 355 205 180 136 106 93 197 178 245 20 281 236 214 148 112 74 57
130 118 119 149 134 146 154 175 249 236 131 167 257 230 252 213 282 189 196 188 188 197 196 171 150 207 207 217 133 182 191 185 193 201 205 213 179 200 238 225 233 217 234 328 303
117 175 154 172 209 180 109 159 166 211 230 183 286 219 233 264 193 175 156 164 180 187 191 170 212 124 133 117 138 186 189 186 183 220 203 229 197 220 209 202 218 199 247 283 289
129 135 121 132 140 120 326 223 153 176 179 200 204 258 175 222 262 193 148 172 177 145 165 131 227 117 136 101 80 170 204 198 211 230 237 110 243 229 197 195 193 198 237 254 278
132 139 122 118 113 98 202 183 191 151 115 307 125 105 156 113 78 16 83 84 131 157 160 147 138 167 214 156 119 242 210 182 201 196 212 212 199 164 198 204 200 237 229 242 235